Location: ???????????
(54.6970°N, 39.1477°E)
Time: 14:35:07
(UTC+00:00)

Cosmos 1437 Rocket - Pass Details

Date: 19 May 2025
Orbit: 456 x 499 km, 81.2° (Epoch: 19 June)

Event Time Altitude Azimuth Distance (km) Brightness Sun altitude
Exits shadow 22:27:12 16° 150° (SSE) 1,275 4.3 -14.0°
Maximum altitude 22:29:25 32° 95° (E) 823 3.8 -13.9°
Drops below altitude 10° 22:32:35 10° 31° (NNE) 1,615 6.5 -13.7°
Sets 22:34:48 0° 21° (NNE) 2,493 8.2 -13.6°
